This is the latest recevied weather packets stored in our database for station/object WB3IGR. If no packets are shown the sender has not sent any weather packets the latest 10 day(s).
| Time | Temp. | Humidity | Pressure | Rain* | Wind** | Luminosity | Snow |
|---|---|---|---|---|---|---|---|
| 1777964937 | 17.22° C | 64% | 1011.2 hPa | 0 mm | - | 0 W/m² | - |
| 1777964633 | 17.78° C | 63% | 1011 hPa | 0 mm | - | 0 W/m² | - |
| 1777964329 | 17.78° C | 61% | 1011.3 hPa | 0 mm | - | 0 W/m² | - |
| 1777964026 | 17.78° C | 61% | 1011.1 hPa | 0 mm | - | 0 W/m² | - |
| 1777963723 | 17.78° C | 61% | 1011.4 hPa | 0 mm | - | 0 W/m² | - |
| 1777963420 | 17.78° C | 61% | 1011.4 hPa | 0 mm | - | 0 W/m² | - |
| 1777963118 | 17.78° C | 61% | 1011.5 hPa | 0 mm | - | 0 W/m² | - |
| 1777962813 | 17.78° C | 61% | 1011.3 hPa | 0 mm | - | 0 W/m² | - |
| 1777962510 | 17.78° C | 60% | 1011.3 hPa | 0 mm | - | 0 W/m² | - |
| 1777962208 | 18.33° C | 60% | 1011.5 hPa | 0 mm | - | 0 W/m² | - |
| 1777961904 | 18.33° C | 60% | 1011.2 hPa | 0 mm | - | 0 W/m² | - |
| 1777961603 | 18.33° C | 59% | 1011.4 hPa | 0 mm | - | 0 W/m² | - |
| 1777961300 | 18.89° C | 58% | 1011.3 hPa | 0 mm | - | 0 W/m² | - |
| 1777960996 | 18.89° C | 58% | 1011.3 hPa | 0 mm | - | 0 W/m² | - |
| 1777960692 | 19.44° C | 56% | 1011.2 hPa | 0 mm | - | 0 W/m² | - |
| 1777960388 | 18.89° C | 57% | 1011.3 hPa | 0 mm | - | 0 W/m² | - |
| 1777960086 | 19.44° C | 57% | 1011.3 hPa | 0 mm | - | 0 W/m² | - |
| 1777959783 | 19.44° C | 57% | 1011.2 hPa | 0 mm | - | 0 W/m² | - |
| 1777959481 | 18.89° C | 57% | 1011.1 hPa | 0 mm | - | 0 W/m² | - |
| 1777959178 | 18.33° C | 58% | 1010.8 hPa | 0 mm | - | 0 W/m² | - |
| 1777958875 | 18.33° C | 58% | 1011.1 hPa | 0 mm | - | 0 W/m² | - |
| 1777958572 | 18.33° C | 58% | 1010.9 hPa | 0 mm | - | 0 W/m² | - |
| 1777958269 | 18.33° C | 58% | 1011.1 hPa | 0 mm | - | 0 W/m² | - |
| 1777957967 | 18.33° C | 57% | 1011 hPa | 0 mm | - | 0 W/m² | - |
| 1777957664 | 18.33° C | 57% | 1010.9 hPa | 0 mm | - | 0 W/m² | - |
* Rain latest hour (hover to see other rain measurements)
** Current wind speed in m/s (hover to see current wind gust speed)